Temp
51 52 52 53 53 52 51 43 33 44 47 39 33 36 45 54 55 58 57 55 55 56 57 55 54 54 53 62 61 53 57 52 45 51 61 61 57 51 50 36 38 41 40 41
52 52 52 53 53 53 49 38 36 44 45 33 33 40 46 52 53 53 53 52 57 60 55 50 55 52 55 58 57 51 55 46 38 43 52 57 51 53 52 52 48 40 34 39
51 51 51 51 52 52 52 42 32 35 36 35 37 35 39 43 54 54 55 54 57 54 51 56 50 49 54 57 55 49 52 48 42 36 44 47 43 47 49 45 37 40 41 46
51 51 51 51 52 52 56 43 38 41 32 33 36 38 38 42 42 48 53 49 49 50 45 48 48 51 47 53 49 53 49 37 41 44 46 46 45 46 48 45 46 38 42 46
50 50 50 50 51 52 52 37 41 47 44 40 37 36 35 37 44 45 45 44 49 51 45 47 41 50 48 46 50 48 50 37 37 35 42 43 40 45 47 47 48 48 48 47
50 50 50 50 51 52 45 49 55 50 43 43 37 36 38 38 44 44 49 47 46 45 47 53 53 52 50 51 45 44 45 40 36 31 41 40 33 41 45 47 50 48 40 49
50 50 50 50 51 52 55 55 53 44 37 40 39 44 42 38 42 39 47 46 43 45 55 54 52 50 50 49 49 50 42 41 38 31 36 22 42 53 52 49 51 54 54 56
50 49 49 50 51 52 56 55 51 44 37 44 40 40 41 44 43 40 41 46 49 54 50 38 34 36 38 42 47 47 48 41 33 27 29 37 42 48 48 45 45 54 53 56
49 49 49 50 50 51 56 52 55 51 40 40 48 44 46 40 41 41 46 51 53 50 41 35 28 28 35 35 41 49 48 45 35 32 25 22 38 51 57 54 37 54 56 52
49 49 49 49 50 51 55 51 53 51 39 48 50 44 44 49 46 40 44 43 42 47 36 30 30 30 41 32 32 34 37 36 30 31 27 34 47 52 55 34 37 51 50 51
49 49 48 49 49 50 52 49 53 50 43 46 48 50 47 48 48 39 44 39 41 37 31 32 33 32 37 37 38 38 35 32 31 32 27 24 52 51 41 45 51 51 52 54
48 48 48 48 49 49 50 48 54 54 48 46 52 53 54 54 53 48 47 43 43 41 36 38 39 34 38 37 30 45 31 38 35 37 36 48 53 51 52 52 50 52 51 52
48 48 48 48 48 49 49 51 52 51 44 45 45 44 52 56 54 56 42 47 50 47 49 40 38 32 40 32 34 38 44 49 38 39 45 48 51 55 56 56 50 55 55 54
48 48 48 48 48 48 48 50 52 50 45 36 43 56 50 56 54 53 52 49 50 49 48 38 36 32 42 35 38 37 42 43 39 38 42 47 50 53 54 54 54 54 55 55
48 48 48 49 49 49 51 50 52 53 43 34 38 48 53 55 53 50 50 48 45 43 38 37 34 40 38 39 38 35 43 39 35 34 45 44 46 51 54 51 51 53 53 53
48 48 49 49 49 47 46 34 50 51 50 37 32 50 49 52 52 49 48 48 46 44 38 37 41 45 38 30 30 41 45 47 47 41 48 48 48 51 53 52 53 53 52 53
47 48 48 48 48 49 40 38 43 49 51 35 32 37 49 51 50 45 45 47 43 41 37 35 37 38 39 32 27 39 44 47 48 50 49 45 49 47 53 53 53 50 51 51
47 46 46 47 47 46 43 49 48 50 39 39 32 36 39 48 39 35 43 37 35 35 36 38 35 38 36 27 37 42 44 46 47 48 49 49 51 51 51 51 50 43 41 44
46 47 47 47 46 41 46 47 46 46 41 32 36 32 30 41 40 37 35 38 30 40 32 35 36 32 28 36 40 42 45 45 45 48 46 43 41 46 49 48 48 45 41 49
46 47 43 35 41 45 44 38 33 32 34 34 31 42 33 40 38 34 34 35 33 29 35 41 32 31 41 44 46 47 48 48 48 41 38 39 36 39 40 45 49 54 54 48
45 40 35 40 44 39 37 32 31 34 30 37 40 40 36 46 34 33 37 32 33 27 32 30 30 30 37 44 45 47 48 49 49 49 50 50 43 45 48 50 52 50 48 43
43 43 43 43 36 35 31 32 36 34 33 41 40 40 41 41 43 34 37 32 32 26 35 30 28 34 46 47 47 48 51 50 50 52 53 53 54 54 53 49 45 40 37 34
44 39 35 35 35 27 26 25 31 32 40 41 40 35 40 41 41 36 34 30 30 37 30 30 37 43 46 46 47 47 48 47 49 50 51 50 41 41 43 37 36 36 34 33
34 32 27 30 27 31 34 35 35 40 39 40 39 37 35 36 33 34 27 34 35 28 27 31 38 41 40 41 42 42 36 34 36 36 33 32 32 33 34 34 34 33 32 32
33 35 27 31 37 37 37 39 40 41 42 38 36 36 37 32 30 32 32 28 26 31 32 36 40 41 38 37 37 34 33 32 32 32 32 32 32 32 32 33 33 33 32 32
36 34 31 35 33 32 32 34 35 43 37 37 37 33 30 31 34 29 28 30 29 33 36 40 41 38 35 35 33 32 32 33 32 32 32 32 32 32 32 32 32 32 32 30
34 31 34 33 33 32 33 36 38 44 36 32 35 30 31 38 32 31 37 33 35 36 39 38 38 36 34 33 32 30 32 33 33 32 32 32 32 31 32 30 31 32 32 32
MSLP
1002.47 1003.75 1003.50 1004.15 1005.50 1007.10 1008.02 1009.35 1010.54 1011.55 1010.98 1010.42 1009.97 1009.41 1008.29 1007.21 1006.59 1006.37 1005.79 1005.71 1004.95 1004.34 1004.35 1004.21 1004.81 1005.10 1006.71 1007.42 1007.53 1008.19 1008.27 1008.33 1007.55 1007.18 1007.36 1007.94 1008.35 1009.09 1009.64 1010.04 1009.47 1009.30 1008.52 1006.27
1003.39 1004.02 1004.87 1005.43 1006.18 1006.83 1007.88 1009.48 1011.13 1011.81 1011.36 1011.26 1010.80 1010.11 1008.82 1007.82 1007.03 1007.07 1006.77 1006.21 1005.78 1005.13 1004.96 1004.96 1005.21 1006.61 1008.81 1009.04 1008.99 1009.28 1009.52 1009.78 1009.53 1008.67 1008.35 1008.53 1009.05 1009.45 1009.86 1009.72 1009.69 1008.98 1009.08 1006.94
1004.49 1005.08 1005.72 1006.26 1006.50 1007.29 1007.77 1009.03 1010.53 1011.91 1012.13 1011.68 1011.07 1010.62 1009.35 1008.56 1007.75 1007.34 1007.03 1006.82 1006.57 1006.25 1005.97 1005.84 1006.40 1007.71 1009.24 1009.63 1009.84 1010.66 1011.12 1010.86 1010.65 1010.27 1009.60 1010.46 1010.47 1010.43 1010.43 1010.67 1010.07 1009.31 1008.65 1007.78
1005.33 1005.86 1006.36 1006.87 1007.00 1007.23 1007.55 1008.90 1009.30 1009.98 1011.22 1011.45 1011.20 1010.81 1010.36 1009.12 1008.43 1008.35 1007.74 1007.85 1007.81 1007.22 1007.37 1007.25 1007.45 1008.60 1010.44 1010.29 1010.99 1011.37 1012.19 1012.43 1012.53 1012.18 1011.82 1011.70 1011.47 1010.87 1010.30 1010.14 1010.03 1009.74 1009.52 1008.27
1006.04 1006.66 1006.79 1006.92 1007.53 1007.68 1007.75 1008.72 1008.49 1008.38 1009.38 1010.46 1010.86 1010.54 1010.40 1010.14 1009.19 1008.95 1008.50 1008.64 1008.80 1008.46 1008.50 1008.70 1009.13 1009.23 1009.97 1010.60 1011.22 1011.95 1012.58 1013.19 1013.77 1013.41 1013.32 1012.85 1012.07 1010.63 1010.11 1009.88 1009.55 1009.01 1008.36 1007.35
1007.05 1007.57 1008.02 1008.17 1008.12 1007.97 1008.29 1008.66 1007.80 1007.81 1008.59 1009.33 1010.45 1010.14 1010.40 1010.66 1010.30 1010.59 1009.25 1009.47 1009.84 1010.19 1010.60 1010.33 1010.49 1011.01 1011.46 1011.44 1011.94 1012.32 1012.49 1013.30 1013.86 1013.13 1013.34 1012.64 1011.52 1010.20 1009.68 1009.18 1008.94 1008.50 1007.74 1007.06
1007.47 1008.03 1008.23 1008.00 1007.99 1008.18 1008.00 1008.06 1008.29 1008.50 1008.74 1009.17 1009.37 1009.27 1010.00 1010.86 1010.95 1011.04 1010.35 1010.59 1010.97 1012.42 1012.24 1012.05 1012.23 1012.20 1012.10 1012.03 1011.99 1012.37 1012.81 1013.26 1013.92 1013.46 1013.85 1012.74 1010.51 1009.56 1009.23 1008.64 1008.05 1007.60 1006.86 1006.40
1007.70 1007.97 1008.23 1008.40 1008.60 1008.80 1008.49 1008.92 1008.82 1008.79 1008.52 1008.22 1009.04 1009.71 1010.03 1010.90 1011.44 1011.72 1011.53 1011.84 1012.37 1012.24 1012.56 1013.32 1013.61 1013.50 1013.08 1012.48 1012.13 1012.36 1012.87 1013.47 1013.95 1013.75 1012.92 1011.87 1010.04 1009.20 1008.89 1008.23 1007.80 1007.48 1007.05 1006.58
1008.34 1008.61 1008.97 1009.09 1009.12 1009.17 1009.03 1009.74 1009.35 1008.73 1008.55 1008.29 1008.59 1009.04 1009.33 1009.92 1010.17 1011.32 1011.78 1012.66 1012.87 1012.74 1013.48 1014.08 1013.87 1013.22 1012.52 1011.72 1011.10 1011.40 1012.24 1012.87 1013.64 1013.27 1012.72 1011.73 1009.06 1009.21 1008.66 1008.22 1007.62 1007.79 1007.24 1007.38
1009.22 1009.47 1009.73 1009.99 1010.02 1010.01 1009.92 1010.41 1010.23 1009.66 1009.65 1009.37 1009.13 1009.09 1009.20 1009.73 1010.26 1011.55 1012.22 1013.53 1013.49 1013.59 1013.73 1014.16 1013.92 1013.29 1012.26 1011.41 1011.41 1011.55 1011.55 1012.06 1012.43 1012.45 1012.41 1011.13 1009.36 1009.50 1009.05 1008.73 1008.81 1008.54 1008.59 1008.35
1009.73 1010.07 1010.40 1010.61 1010.65 1010.69 1010.67 1011.07 1010.85 1010.57 1010.56 1010.49 1010.38 1010.13 1009.83 1009.85 1010.21 1011.10 1011.96 1013.06 1013.31 1014.00 1014.10 1013.94 1013.48 1013.00 1012.14 1011.37 1011.38 1011.18 1011.18 1011.49 1011.49 1011.89 1011.85 1010.64 1009.32 1008.95 1009.01 1009.11 1008.79 1009.30 1008.49 1008.31
1010.26 1010.66 1010.94 1011.12 1011.14 1011.25 1011.25 1011.07 1011.25 1010.95 1010.65 1011.03 1011.26 1011.01 1010.81 1010.71 1010.73 1011.04 1011.44 1012.03 1012.24 1012.99 1013.38 1013.22 1012.91 1012.58 1011.77 1011.47 1010.93 1010.87 1010.64 1010.69 1010.58 1010.77 1010.07 1009.58 1008.89 1008.38 1008.52 1009.36 1009.47 1008.87 1008.62 1009.42
1010.71 1011.02 1011.39 1011.72 1011.82 1011.93 1011.90 1011.44 1011.77 1011.60 1011.70 1011.65 1011.74 1011.52 1011.56 1011.62 1011.74 1011.80 1011.94 1011.76 1011.91 1012.31 1012.80 1013.38 1013.36 1012.68 1012.06 1011.43 1010.70 1010.22 1009.93 1009.93 1010.10 1010.24 1009.15 1009.21 1008.76 1008.34 1008.29 1008.40 1009.12 1009.18 1009.00 1008.78
1011.14 1011.54 1011.88 1012.14 1012.27 1012.34 1012.33 1011.98 1012.20 1012.02 1012.07 1011.76 1011.02 1010.81 1011.28 1011.56 1012.07 1012.24 1012.43 1012.32 1012.52 1012.78 1012.79 1013.14 1013.15 1012.91 1012.39 1011.76 1011.17 1010.51 1010.26 1010.36 1009.84 1009.88 1009.75 1009.47 1008.79 1008.35 1008.13 1008.39 1008.79 1008.69 1008.84 1008.55
1011.27 1011.66 1012.02 1012.33 1012.62 1012.78 1012.78 1012.89 1012.80 1012.65 1012.79 1012.23 1011.56 1011.29 1011.12 1011.22 1011.65 1012.07 1012.46 1012.79 1012.99 1013.12 1013.10 1012.78 1012.58 1012.63 1012.70 1012.02 1011.72 1010.25 1010.66 1009.84 1010.03 1009.17 1009.19 1009.33 1008.64 1008.60 1008.54 1008.47 1008.57 1008.66 1008.48 1008.07
1011.35 1011.79 1012.22 1012.56 1012.81 1013.13 1013.08 1013.17 1012.79 1013.04 1012.94 1012.86 1012.03 1010.51 1010.38 1010.63 1011.15 1011.72 1012.10 1012.45 1012.86 1013.05 1013.10 1012.74 1012.29 1012.18 1012.29 1011.65 1010.42 1009.86 1010.24 1009.88 1009.66 1009.13 1009.18 1008.99 1008.68 1008.79 1008.65 1008.44 1008.41 1008.37 1008.41 1008.24
1011.41 1011.90 1012.35 1012.68 1013.02 1013.17 1013.49 1013.62 1013.69 1013.32 1013.41 1013.52 1012.55 1010.76 1009.83 1010.22 1010.75 1011.57 1012.01 1012.28 1012.45 1012.85 1013.07 1012.56 1012.46 1011.99 1011.98 1011.15 1009.86 1009.89 1009.67 1009.10 1008.69 1008.57 1008.64 1008.46 1008.51 1008.00 1007.90 1007.91 1008.01 1008.50 1008.46 1008.47
1011.56 1012.08 1012.69 1012.98 1013.30 1013.73 1013.73 1013.59 1013.72 1013.83 1014.21 1014.01 1012.71 1010.74 1010.31 1010.56 1011.00 1011.86 1012.22 1012.55 1013.02 1012.95 1012.35 1011.88 1011.59 1011.45 1011.40 1009.97 1008.26 1008.74 1008.69 1008.40 1008.28 1008.27 1008.33 1008.14 1008.05 1007.88 1007.76 1007.78 1007.87 1008.41 1008.77 1007.93
1011.61 1012.31 1012.85 1013.23 1013.30 1013.30 1013.00 1013.43 1014.09 1014.38 1014.73 1013.92 1012.27 1010.82 1010.27 1011.04 1010.88 1011.79 1012.67 1012.68 1012.37 1011.74 1011.35 1010.78 1011.13 1010.21 1008.91 1007.16 1007.47 1007.33 1007.09 1006.99 1007.12 1007.26 1007.56 1007.87 1008.01 1007.40 1007.11 1007.10 1007.20 1007.05 1007.85 1007.57
1012.12 1012.42 1012.53 1012.92 1013.18 1013.51 1013.74 1014.38 1014.77 1014.87 1014.67 1014.13 1012.10 1010.39 1010.25 1010.62 1010.74 1011.23 1011.81 1011.93 1011.15 1010.33 1009.47 1009.28 1009.25 1008.14 1007.02 1006.60 1006.34 1006.21 1006.26 1006.44 1006.58 1007.21 1007.36 1007.68 1007.89 1007.55 1007.48 1006.89 1006.65 1006.16 1006.49 1007.61
1011.99 1012.12 1012.71 1013.07 1013.28 1013.51 1013.27 1013.21 1013.27 1012.79 1012.51 1011.59 1010.15 1009.84 1009.62 1009.51 1010.29 1010.71 1010.93 1010.65 1010.46 1009.53 1008.68 1008.76 1007.80 1006.25 1005.42 1005.24 1005.04 1005.14 1005.36 1005.70 1006.10 1006.17 1005.62 1005.29 1006.29 1005.98 1005.85 1005.87 1006.21 1006.69 1007.46 1008.55
1012.09 1012.24 1012.58 1012.76 1012.91 1012.59 1012.12 1011.47 1011.00 1010.64 1009.56 1008.97 1008.59 1008.95 1009.24 1009.62 1010.02 1010.41 1010.15 1009.94 1009.61 1008.72 1009.00 1008.31 1006.31 1005.21 1004.59 1004.59 1004.59 1004.49 1003.76 1004.81 1005.28 1005.23 1005.06 1005.12 1005.08 1005.21 1005.53 1006.14 1007.12 1008.14 1009.12 1009.92
1012.26 1012.28 1012.22 1012.00 1011.65 1011.28 1010.85 1010.07 1009.58 1008.99 1008.47 1008.60 1008.65 1009.24 1009.43 1009.81 1010.00 1010.01 1009.90 1009.22 1008.38 1008.25 1007.94 1006.42 1004.90 1004.85 1004.89 1005.07 1005.04 1005.23 1005.44 1005.59 1005.51 1005.42 1005.40 1005.59 1006.39 1006.35 1006.70 1007.76 1008.60 1009.30 1010.27 1011.18
1012.32 1011.88 1011.42 1010.84 1010.48 1010.00 1009.26 1008.89 1008.64 1008.51 1008.73 1008.73 1009.02 1009.26 1009.62 1009.89 1009.93 1009.87 1009.66 1008.64 1008.18 1007.44 1006.33 1005.26 1005.24 1005.56 1006.05 1006.42 1006.65 1006.72 1007.29 1007.45 1007.36 1007.49 1007.75 1007.98 1008.05 1008.25 1008.80 1009.37 1009.81 1010.36 1011.26 1012.02
1011.58 1011.04 1010.45 1009.84 1009.50 1009.36 1009.29 1009.06 1008.92 1008.88 1009.08 1009.37 1009.52 1009.50 1009.34 1009.41 1009.58 1009.60 1009.06 1008.50 1007.55 1006.39 1005.40 1005.46 1005.91 1006.43 1007.09 1007.48 1007.95 1008.36 1008.56 1008.64 1008.67 1008.84 1008.92 1009.15 1009.32 1009.49 1010.10 1010.56 1011.04 1011.46 1011.89 1012.43
1010.96 1010.73 1010.30 1009.77 1009.71 1009.47 1009.53 1009.38 1009.25 1009.10 1009.56 1009.76 1009.82 1009.30 1008.71 1008.40 1008.09 1008.22 1007.83 1006.99 1006.11 1005.84 1006.13 1006.29 1006.67 1007.39 1008.04 1008.50 1009.01 1009.27 1009.40 1009.49 1009.63 1009.74 1009.83 1009.99 1010.26 1010.58 1011.06 1011.42 1011.77 1012.25 1012.52 1012.73
1010.34 1010.03 1009.94 1009.93 1009.72 1009.55 1009.43 1009.34 1008.93 1008.86 1009.49 1009.40 1009.04 1008.53 1007.55 1007.02 1006.79 1006.56 1006.13 1006.08 1006.30 1006.67 1006.69 1007.23 1007.53 1007.91 1008.57 1009.21 1009.58 1009.95 1010.01 1010.06 1010.20 1010.37 1010.53 1010.76 1011.07 1011.40 1011.68 1011.95 1012.37 1012.74 1012.99 1013.11
Wind_Speed
23 16 15 20 18 16 7 3 4 3 5 3 2 8 10 13 5 3 5 6 12 13 17 17 16 18 10 8 6 10 2 5 11 13 5 3 2 7 7 4 9 7 8 17
19 18 15 22 25 23 3 4 2 2 2 7 5 5 16 17 12 11 8 9 11 12 15 8 14 16 8 5 6 5 2 4 7 10 11 11 9 6 12 13 14 17 12 11
18 16 14 12 14 6 4 3 4 3 3 3 4 4 9 11 11 11 10 9 12 8 8 8 3 12 9 6 8 9 4 7 7 9 7 3 7 11 12 11 9 11 13 18
17 15 14 12 10 7 5 2 2 7 4 1 1 9 5 15 8 3 4 5 11 13 10 13 11 6 1 7 9 5 1 4 7 12 13 13 15 18 20 19 18 16 18 20
18 15 13 10 7 3 4 4 2 2 6 12 6 4 6 12 12 10 12 9 12 8 8 7 3 14 12 6 11 9 9 4 3 6 10 12 17 23 23 22 22 21 21 22
18 16 13 11 7 5 3 2 1 2 2 8 8 6 6 5 9 5 6 7 5 11 4 7 5 10 5 8 11 14 11 6 7 15 11 10 15 19 22 21 20 19 19 20
17 15 12 10 9 6 2 1 2 3 5 7 11 12 11 12 8 6 3 10 3 4 2 7 3 2 2 4 5 6 6 8 6 10 8 13 15 19 19 21 22 20 21 18
16 14 12 10 9 9 2 0 3 2 3 10 6 8 13 14 14 13 9 3 9 8 5 4 2 2 3 8 14 14 13 10 6 6 8 13 23 17 14 16 17 19 20 20
14 13 12 11 10 13 5 5 5 3 1 3 7 12 11 12 9 6 9 10 7 4 4 2 7 7 7 6 7 16 17 14 10 10 12 10 17 13 13 15 13 17 15 11
12 12 10 8 7 10 2 3 6 2 3 6 3 6 10 10 9 8 9 8 4 3 4 5 5 8 10 9 9 8 8 10 15 13 12 12 21 21 19 15 9 11 13 16
11 11 10 6 5 8 4 4 5 3 2 2 4 3 3 3 7 6 8 6 5 4 6 5 6 7 7 9 11 15 14 11 10 12 14 18 7 15 16 9 8 14 15 11
11 11 10 6 3 7 11 5 4 5 2 5 4 3 6 4 4 4 11 5 6 5 6 6 6 7 7 11 12 14 16 13 10 14 11 11 13 16 2 5 15 13 10 19
12 11 11 7 2 6 7 6 2 3 2 2 3 5 8 7 6 5 3 7 6 8 5 4 4 7 7 9 11 14 16 15 11 13 17 18 19 16 15 10 8 16 16 16
13 12 11 9 4 4 8 3 3 2 1 1 3 7 7 10 9 9 7 10 7 7 5 5 5 7 6 9 13 12 9 13 14 12 17 17 19 17 11 14 14 16 18 15
13 13 11 10 7 2 2 2 0 2 3 1 3 7 8 9 10 12 11 10 9 6 7 6 9 9 10 10 11 15 11 15 11 14 15 14 16 14 18 18 18 17 19 19
14 13 12 10 9 5 2 2 4 2 2 1 3 2 7 11 14 12 12 10 9 8 6 7 10 15 10 7 13 19 19 19 19 18 19 19 21 18 21 21 18 17 17 17
15 12 12 12 10 4 1 3 3 3 2 0 3 4 5 7 9 7 6 9 5 6 7 8 11 11 9 12 19 19 20 20 17 16 14 17 20 16 15 16 18 16 18 17
14 12 9 10 5 3 5 6 8 5 3 2 4 4 5 7 4 3 2 2 0 3 5 5 9 8 9 12 18 19 20 20 20 20 19 19 18 19 20 19 14 16 20 13
18 18 15 5 3 1 2 12 8 4 2 3 4 5 1 3 3 3 2 3 4 4 6 10 6 6 11 13 15 17 16 15 15 15 11 15 17 17 15 11 18 17 17 12
18 9 4 3 4 10 10 3 3 2 3 4 5 5 3 5 4 4 4 5 4 4 7 4 7 14 22 21 19 16 13 13 6 8 17 14 15 17 14 18 15 7 3 12
5 3 3 2 13 3 4 3 5 5 5 6 6 9 7 3 4 2 4 2 3 4 1 5 4 6 11 18 20 19 20 17 14 19 17 13 20 17 13 10 3 9 11 9
3 1 2 4 3 4 4 4 4 6 4 5 5 0 1 2 2 4 4 4 3 4 7 4 4 2 3 3 4 8 2 15 17 19 15 11 3 2 3 9 9 10 11 11
0 1 3 4 5 5 4 6 3 3 3 2 3 2 1 2 1 2 3 4 4 5 4 4 2 5 6 8 7 7 10 10 4 6 8 8 9 11 9 10 10 12 10 9
2 5 5 5 4 4 4 5 2 2 3 2 2 2 3 2 3 2 3 3 3 4 4 4 4 8 8 6 9 9 9 8 9 10 10 10 10 12 10 8 7 10 10 8
4 3 4 5 4 1 2 4 1 1 4 3 1 3 3 3 3 3 4 3 5 5 3 3 4 6 4 4 6 5 6 6 6 6 7 8 8 9 9 6 6 8 9 10
2 3 3 4 3 3 2 2 4 3 3 2 2 3 3 5 4 6 7 4 4 3 3 3 5 4 4 4 4 4 4 4 4 5 5 6 6 7 7 7 7 7 9 10
4 4 1 4 5 3 1 4 6 2 5 3 4 5 8 3 3 5 5 2 4 2 3 3 4 3 5 4 3 3 4 4 4 4 4 5 6 6 8 8 7 8 8 9
Wind_Direction
108 115 102 120 123 143 143 101 92 331 329 161 59 192 199 222 172 200 256 303 286 237 239 216 217 219 143 173 158 203 61 308 232 218 176 71 172 199 239 233 226 225 262 262
118 122 139 153 155 158 115 101 97 356 281 180 195 222 221 236 204 209 211 223 252 244 240 221 225 109 149 169 206 35 144 238 243 249 263 204 222 257 323 263 240 253 262 268
121 118 120 122 132 135 109 108 119 42 28 342 135 155 198 186 235 234 199 222 256 253 242 231 204 121 149 161 88 68 356 265 271 263 269 32 296 291 283 284 289 288 264 286
110 114 116 110 100 82 125 89 200 153 153 201 211 161 190 187 172 268 233 218 245 220 220 234 221 191 128 184 129 134 250 278 303 280 289 306 292 276 266 259 265 256 271 273
114 113 108 95 73 355 106 135 168 133 156 144 184 182 184 208 193 178 201 191 210 231 239 260 299 256 178 180 153 199 211 221 201 265 263 263 264 268 273 273 275 280 283 285
121 117 111 102 76 9 77 308 61 260 127 174 179 168 158 160 171 305 165 204 248 232 284 241 66 34 152 246 197 214 199 204 236 261 253 246 253 253 258 269 270 267 264 264
114 111 94 76 63 17 96 94 251 204 196 189 195 181 145 155 147 146 145 139 158 102 218 63 38 340 270 253 249 278 274 225 248 272 282 254 257 265 270 273 274 277 278 269
109 98 82 72 59 16 116 37 291 172 252 189 123 169 161 163 172 164 150 211 141 174 126 60 14 269 275 248 235 228 225 239 231 241 237 273 279 276 291 295 293 288 290 293
109 100 85 68 48 14 75 29 312 353 341 118 186 167 176 152 153 135 136 98 100 106 111 170 205 210 216 204 200 211 222 217 228 240 256 252 261 284 295 309 289 298 303 357
118 113 96 74 50 25 22 65 355 20 27 28 178 160 167 158 151 154 159 153 153 201 160 191 220 238 268 237 217 253 234 205 220 232 248 267 274 282 274 274 304 343 341 328
125 122 114 97 48 30 4 61 12 355 102 131 338 32 195 174 198 171 148 141 189 168 198 210 210 234 245 255 251 254 238 228 234 228 247 255 254 268 267 352 349 325 319 314
131 129 128 110 51 7 357 93 32 323 55 81 20 354 333 343 341 280 159 182 171 171 212 223 238 242 249 256 251 237 245 257 259 249 255 244 260 295 296 245 304 321 326 301
138 135 135 129 75 15 344 99 79 44 36 164 184 222 231 263 267 315 283 201 227 204 201 260 285 267 281 257 252 257 257 257 253 261 263 281 282 285 292 316 302 306 317 311
152 150 145 141 129 20 360 69 32 10 32 247 171 155 215 210 219 232 240 282 317 311 236 234 243 251 270 277 291 281 279 289 287 293 284 279 281 288 315 307 323 312 314 302
160 158 155 156 157 142 356 18 308 345 317 358 306 324 241 205 200 211 221 232 248 250 247 238 235 247 265 271 281 268 268 267 266 272 277 285 291 303 301 308 307 302 300 296
164 163 167 169 164 179 116 12 171 206 315 337 269 306 240 209 212 218 221 226 230 241 243 251 249 260 255 258 250 255 255 255 263 274 285 288 287 290 292 286 290 302 297 290
163 161 174 168 171 204 333 24 40 155 127 174 272 249 180 194 191 201 222 239 233 234 243 238 254 256 259 254 257 262 268 282 279 272 284 280 261 261 268 280 291 297 289 281
171 152 186 152 142 256 184 162 110 98 84 294 267 259 169 166 160 178 205 206 42 216 233 232 231 246 237 250 249 260 260 257 258 260 263 268 275 276 275 273 275 287 279 273
135 124 128 126 224 184 74 113 114 25 312 254 235 244 274 325 165 120 167 229 231 204 228 230 229 224 226 247 254 254 261 256 254 258 309 312 302 289 277 273 262 263 233 196
133 157 182 180 196 102 110 89 148 143 179 224 250 254 224 195 175 189 204 195 235 231 215 203 229 247 255 258 258 260 257 266 259 262 252 256 254 250 244 247 243 258 284 113
194 158 188 88 138 187 198 181 213 174 206 213 231 232 256 228 220 245 216 202 233 248 184 184 233 252 238 253 248 250 250 247 237 246 267 236 209 223 214 216 115 64 94 93
78 63 155 140 198 208 216 208 200 205 244 184 199 92 128 131 187 215 204 238 224 264 156 224 251 331 84 43 16 350 235 211 230 241 253 276 227 286 16 87 84 88 95 98
43 208 191 211 188 204 216 185 214 226 178 219 150 156 159 182 232 236 277 251 244 142 230 252 278 128 63 37 22 38 33 15 310 310 315 339 53 48 79 87 100 103 99 109
229 196 195 235 168 234 211 255 353 66 70 67 57 166 184 182 188 258 264 271 302 265 235 246 66 64 64 43 27 41 29 24 41 51 56 67 74 78 79 80 97 113 119 119
235 202 229 215 242 286 348 340 352 47 133 132 235 253 228 181 197 205 251 245 245 235 288 42 59 79 98 89 89 74 54 39 45 48 71 81 87 87 90 87 95 107 120 127
232 231 248 247 302 248 219 209 249 268 109 68 253 266 237 210 206 180 211 238 242 27 47 42 94 85 77 88 82 80 74 64 62 65 67 79 83 95 102 102 102 122 131 122
212 232 242 281 291 287 335 224 232 204 158 206 224 229 220 202 222 210 208 259 31 58 21 21 22 112 129 126 132 117 111 105 107 106 90 89 104 123 126 118 120 124 123 122